sat.trackr.live / text

‹ back to catalog

KUIPER-00069

NORAD 64816 · 2025-151A

PAYLOAD ACTIVE UNKNOWN

§ Identity

Operator
Country
US
Launch date
2025-07-16
Launch site
AFETR
Launch vehicle
Mass (kg)
RCS (m²)

External: N2YO · Heavens-Above · Gunter

§ Orbital elements

Epoch: 2026-09-21T21:19:08.956704Z

Period
97.30 min
Inclination
51.9023°
Eccentricity
0.0000858
Mean motion
14.79928141 rev/d
Perigee alt
628.9 km
Apogee alt
630.2 km
Semi-major
7,007.7 km
B*
1.4278e-4
RAAN
133.0648°
Arg perigee
105.5476°
Mean anomaly
254.5581°
Rev number
6,581

§ Raw data

KUIPER-000691 64816U 25151A   26264.88829811  .00000867  00000+0  14278-3 0  99992 64816  51.9023 133.0648 0000858 105.5476 254.5581 14.79928141 65817

JSON: /api/v1/satellites/64816 · /tle

For live sub-satellite position, see the globe view (requires WebGL).

§ Visibility from observer

Set your observer location to see the next 7 days of passes ≥ 10°. The values pass through the URL so the page stays shareable.

No JS? Fill the form by hand. The geolocation button needs JavaScript.